Location: Champseau
(45.8333°N, 1.7667°E)
Time: 15:49:19
(UTC+00:00)

STRAND 1 - Visible Passes

Search period start: 28 November 2021 00:00
Search period end: 08 December 2021 00:00
Orbit: 767 x 781 km, 98.4° (Epoch: 28 November)

Date Brightness Start Highest point End Pass type
(mag) Time Alt. Az. Time Alt. Az. Time Alt. Az.
28 Nov ? 04:22:30 10° E 04:24:37 13° NE 04:26:43 10° NNE visible
28 Nov ? 05:57:49 10° SSE 06:02:57 78° ENE 06:08:06 10° NNW visible
29 Nov ? 05:24:14 10° SE 05:28:59 40° ENE 05:33:45 10° N visible
30 Nov ? 04:51:20 10° ESE 04:55:11 22° ENE 04:59:01 10° NNE visible
30 Nov ? 06:28:56 10° S 06:33:58 57° W 06:39:02 10° NNW visible
01 Dec ? 04:19:44 10° ENE 04:21:33 12° NE 04:23:21 10° NE visible
01 Dec ? 05:54:44 10° SSE 05:59:51 74° ENE 06:04:58 10° N visible
02 Dec ? 05:21:11 10° SE 05:25:53 38° ENE 05:30:36 10° N visible
03 Dec ? 04:48:23 10° ESE 04:52:05 21° ENE 04:55:49 10° NNE visible
03 Dec ? 06:25:47 10° S 06:30:50 60° W 06:35:56 10° NNW visible
04 Dec ? 04:17:02 10° ENE 04:18:29 11° NE 04:19:55 10° NE visible
04 Dec ? 05:51:38 10° SSE 05:56:44 70° ENE 06:01:50 10° N visible
05 Dec ? 05:18:10 10° SE 05:22:47 36° ENE 05:27:25 10° N visible
06 Dec ? 04:45:25 10° ESE 04:49:00 20° ENE 04:52:36 10° NNE visible
06 Dec ? 06:22:38 10° S 06:27:43 64° WSW 06:32:48 10° NNW visible
07 Dec ? 04:14:29 10° ENE 04:15:24 10° NE 04:16:20 10° NE visible
07 Dec ? 05:48:33 10° SSE 05:53:37 65° ENE 05:58:41 10° N visible
